When you browse on this site, cookies collect data to enhance your experience and personalize the content and advertising you see.
Visit our Privacy Policy to learn more. By continuing to use the site, you agree to this use of cookies and data.
  • In Austria
  • List of Countries
  • For 7 days
  • Water Temperature
  • Weather Map
  • News
  • Weather Widgets
  • user-avatar
    Login

    Hourly Weather Tepeapulco

    Today, 18 January, Saturday

    Time Temperature Precipitation Wind Pressure Humidity
    00:00 +12°C° 0.1 mm 1 mps 563 mmHg 82%
    01:00 +12°C° 0.1 mm 1 mps 563 mmHg 80%
    02:00 +12°C° 0.1 mm 1 mps 562 mmHg 79%
    03:00 +11°C° 0.1 mm 1 mps 562 mmHg 79%
    04:00 +11°C° 0.1 mm 1 mps 562 mmHg 80%
    05:00 +9°C° 0 mm 0 mps 562 mmHg 80%
    06:00 +11°C° 0 mm 1 mps 563 mmHg 77%
    07:00 +12°C° 0 mm 1 mps 563 mmHg 75%
    08:00 +13°C° 0 mm 1 mps 564 mmHg 72%
    09:00 +15°C° 0 mm 2 mps 565 mmHg 64%
    10:00 +16°C° 0 mm 2 mps 566 mmHg 57%
    11:00 +18°C° 0 mm 2 mps 566 mmHg 49%
    12:00 +18°C° 0.1 mm 3 mps 566 mmHg 49%
    13:00 +18°C° 0.1 mm 3 mps 565 mmHg 48%
    14:00 +18°C° 0.1 mm 3 mps 564 mmHg 48%
    15:00 +17°C° 0.5 mm 3 mps 564 mmHg 57%
    16:00 +14°C° 0.5 mm 3 mps 563 mmHg 66%
    17:00 +13°C° 0.5 mm 4 mps 563 mmHg 75%
    18:00 +12°C° 0.2 mm 3 mps 563 mmHg 78%
    19:00 +12°C° 0.2 mm 3 mps 563 mmHg 82%
    20:00 +12°C° 0.2 mm 2 mps 563 mmHg 85%
    21:00 +12°C° 0.2 mm 2 mps 563 mmHg 85%
    22:00 +12°C° 0.2 mm 2 mps 563 mmHg 85%
    23:00 +12°C° 0.2 mm 2 mps 563 mmHg 85%

    Tomorrow, 19 January, Sunday

    Time Temperature Precipitation Wind Pressure Humidity
    00:00 +12°C° 0.2 mm 2 mps 563 mmHg 86%
    01:00 +12°C° 0.2 mm 2 mps 563 mmHg 86%
    02:00 +12°C° 0.2 mm 2 mps 563 mmHg 86%
    03:00 +10°C° 0 mm 2 mps 563 mmHg 87%
    04:00 +10°C° 0 mm 2 mps 563 mmHg 88%
    05:00 +10°C° 0 mm 2 mps 563 mmHg 88%
    06:00 +10°C° 0.1 mm 2 mps 563 mmHg 86%
    07:00 +12°C° 0.1 mm 2 mps 564 mmHg 84%
    08:00 +12°C° 0.1 mm 2 mps 564 mmHg 81%
    09:00 +12°C° 0.3 mm 2 mps 565 mmHg 80%
    10:00 +12°C° 0.3 mm 3 mps 565 mmHg 78%
    11:00 +12°C° 0.3 mm 3 mps 565 mmHg 76%
    12:00 +12°C° 0.2 mm 4 mps 564 mmHg 75%
    13:00 +13°C° 0.2 mm 4 mps 564 mmHg 74%
    14:00 +13°C° 0.2 mm 4 mps 564 mmHg 72%
    15:00 +12°C° 0.2 mm 4 mps 564 mmHg 76%
    16:00 +11°C° 0.2 mm 4 mps 563 mmHg 80%
    17:00 +10°C° 0.2 mm 4 mps 563 mmHg 83%
    18:00 +10°C° 1.4 mm 3 mps 563 mmHg 85%
    19:00 +9°C° 1.4 mm 3 mps 564 mmHg 87%
    20:00 +9°C° 1.4 mm 3 mps 564 mmHg 89%
    21:00 +9°C° 0.6 mm 3 mps 564 mmHg 89%
    22:00 +9°C° 0.6 mm 2 mps 564 mmHg 89%
    23:00 +9°C° 0.6 mm 2 mps 564 mmHg 89%

    Day after tomorrow, 20 January, Monday

    Time Temperature Precipitation Wind Pressure Humidity
    00:00 +9°C° 0.2 mm 2 mps 564 mmHg 89%
    01:00 +8°C° 0.2 mm 2 mps 564 mmHg 89%
    02:00 +8°C° 0.2 mm 2 mps 564 mmHg 89%
    03:00 +9°C° 0.1 mm 1 mps 564 mmHg 89%
    04:00 +9°C° 0.1 mm 1 mps 564 mmHg 89%
    05:00 +9°C° 0.1 mm 1 mps 564 mmHg 89%
    06:00 +9°C° 0 mm 2 mps 564 mmHg 86%
    07:00 +9°C° 0 mm 2 mps 565 mmHg 84%
    08:00 +9°C° 0 mm 2 mps 566 mmHg 82%
    09:00 +10°C° 0 mm 3 mps 566 mmHg 80%
    10:00 +10°C° 0 mm 3 mps 565 mmHg 78%
    11:00 +10°C° 0 mm 4 mps 565 mmHg 76%
    12:00 +11°C° 0 mm 4 mps 565 mmHg 73%
    13:00 +11°C° 0 mm 4 mps 565 mmHg 71%
    14:00 +12°C° 0 mm 4 mps 565 mmHg 68%
    15:00 +11°C° 0 mm 4 mps 564 mmHg 72%
    16:00 +10°C° 0 mm 4 mps 564 mmHg 75%
    17:00 +8°C° 0 mm 4 mps 563 mmHg 79%
    18:00 +7°C° 0 mm 4 mps 563 mmHg 81%
    19:00 +8°C° 0 mm 3 mps 564 mmHg 84%
    20:00 +7°C° 0 mm 3 mps 564 mmHg 86%
    21:00 +7°C° 0 mm 3 mps 564 mmHg 86%
    22:00 +7°C° 0 mm 3 mps 564 mmHg 85%
    23:00 +7°C° 0 mm 2 mps 564 mmHg 84%

    21 January, Tuesday

    Time Temperature Precipitation Wind Pressure Humidity
    00:00 +7°C° 0 mm 2 mps 563 mmHg 84%
    01:00 +7°C° 0 mm 2 mps 563 mmHg 84%
    02:00 +7°C° 0 mm 2 mps 563 mmHg 84%
    03:00 +8°C° 0 mm 1 mps 563 mmHg 85%
    04:00 +7°C° 0 mm 1 mps 562 mmHg 87%
    05:00 +7°C° 0 mm 1 mps 562 mmHg 88%
    06:00 +8°C° 0 mm 1 mps 563 mmHg 84%
    07:00 +8°C° 0 mm 1 mps 563 mmHg 79%
    08:00 +9°C° 0 mm 1 mps 564 mmHg 75%
    09:00 +11°C° 0 mm 1 mps 564 mmHg 66%
    10:00 +13°C° 0 mm 1 mps 565 mmHg 58%
    11:00 +15°C° 0 mm 2 mps 566 mmHg 50%
    12:00 +16°C° 0 mm 2 mps 565 mmHg 46%
    13:00 +17°C° 0 mm 2 mps 565 mmHg 42%
    14:00 +17°C° 0 mm 3 mps 565 mmHg 38%
    15:00 +16°C° 0 mm 2 mps 564 mmHg 43%
    16:00 +16°C° 0 mm 2 mps 564 mmHg 48%
    17:00 +15°C° 0 mm 2 mps 563 mmHg 53%
    18:00 +13°C° 0 mm 1 mps 563 mmHg 59%
    19:00 +12°C° 0 mm 1 mps 563 mmHg 65%
    20:00 +11°C° 0 mm 1 mps 562 mmHg 72%
    21:00 +11°C° 0 mm 1 mps 562 mmHg 69%
    22:00 +12°C° 0 mm 1 mps 562 mmHg 67%
    23:00 +12°C° 0 mm 2 mps 562 mmHg 65%

    22 January, Wednesday

    Time Temperature Precipitation Wind Pressure Humidity
    00:00 +11°C° 0 mm 1 mps 562 mmHg 68%
    01:00 +10°C° 0 mm 1 mps 561 mmHg 71%
    02:00 +9°C° 0 mm 1 mps 560 mmHg 75%
    03:00 +9°C° 0 mm 1 mps 560 mmHg 76%
    04:00 +9°C° 0 mm 1 mps 560 mmHg 77%
    05:00 +8°C° 0 mm 1 mps 559 mmHg 78%
    06:00 +10°C° 0 mm 1 mps 560 mmHg 74%
    07:00 +10°C° 0 mm 2 mps 561 mmHg 69%
    08:00 +12°C° 0 mm 2 mps 562 mmHg 64%
    09:00 +14°C° 0 mm 2 mps 562 mmHg 57%
    10:00 +16°C° 0 mm 3 mps 563 mmHg 49%
    11:00 +17°C° 0 mm 3 mps 563 mmHg 42%
    12:00 +18°C° 0 mm 3 mps 563 mmHg 40%
    13:00 +19°C° 0 mm 3 mps 562 mmHg 38%
    14:00 +20°C° 0 mm 3 mps 562 mmHg 35%
    15:00 +19°C° 0 mm 3 mps 562 mmHg 41%
    16:00 +18°C° 0 mm 3 mps 561 mmHg 46%
    17:00 +17°C° 0 mm 3 mps 561 mmHg 51%
    18:00 +16°C° 0.1 mm 2 mps 561 mmHg 56%
    19:00 +15°C° 0.1 mm 2 mps 561 mmHg 60%
    20:00 +14°C° 0.1 mm 1 mps 561 mmHg 65%
    21:00 +13°C° 0 mm 1 mps 561 mmHg 68%
    22:00 +12°C° 0 mm 1 mps 560 mmHg 71%
    23:00 +12°C° 0 mm 1 mps 560 mmHg 73%

    23 January, Thursday

    Time Temperature Precipitation Wind Pressure Humidity
    00:00 +11°C° 0 mm 1 mps 559 mmHg 75%
    01:00 +10°C° 0 mm 1 mps 559 mmHg 77%
    02:00 +10°C° 0 mm 1 mps 558 mmHg 79%
    03:00 +9°C° 0 mm 1 mps 558 mmHg 79%
    04:00 +9°C° 0 mm 1 mps 558 mmHg 79%
    05:00 +9°C° 0 mm 1 mps 558 mmHg 79%
    06:00 +10°C° 0 mm 1 mps 559 mmHg 74%
    07:00 +10°C° 0 mm 1 mps 560 mmHg 69%
    08:00 +11°C° 0 mm 1 mps 560 mmHg 64%
    09:00 +13°C° 0 mm 2 mps 561 mmHg 55%
    10:00 +14°C° 0 mm 3 mps 562 mmHg 45%
    11:00 +16°C° 0 mm 3 mps 562 mmHg 35%
    12:00 +17°C° 0 mm 4 mps 562 mmHg 33%
    13:00 +17°C° 0 mm 4 mps 562 mmHg 31%
    14:00 +17°C° 0 mm 5 mps 561 mmHg 28%
    15:00 +15°C° 0 mm 5 mps 560 mmHg 38%
    16:00 +13°C° 0 mm 5 mps 559 mmHg 48%
    17:00 +10°C° 0 mm 5 mps 558 mmHg 57%
    18:00 +11°C° 0 mm 4 mps 559 mmHg 57%
    19:00 +10°C° 0 mm 3 mps 559 mmHg 57%
    20:00 +10°C° 0 mm 2 mps 559 mmHg 57%
    21:00 +11°C° 0 mm 1 mps 559 mmHg 56%
    22:00 +11°C° 0 mm 1 mps 559 mmHg 56%
    23:00 +9°C° 0 mm 0 mps 558 mmHg 56%
    Show more